Probability
0 0 0 0 0 0 0 0 0 0 0 0 0 0 0 0 0 0 0 0 0 0 0 0 0 0 0 0 0 0 0 0 0 0 0 0 0 0 0 0 0 0 0
0 0 0 0 0 0 0 0 0 0 0 0 0 0 0 0 0 0 0 0 0 0 0 0 0 0 0 0 0 0 0 0 0 0 0 0 0 0 0 0 0 0 0
0 0 0 0 0 0 0 0 0 0 0 0 0 0 0 0 0 0 0 0 0 0 0 0 0 0 0 0 0 0 0 0 0 0 0 0 0 0 0 0 0 0 0
0 0 0 0 0 0 0 0 0 0 0 0 0 0 0 0 0 0 0 0 0 0 0 0 0 0 0 0 0 0 0 0 0 0 0 0 1 0 0 1 1 1 1
0 0 0 0 0 0 0 0 0 0 0 0 0 0 0 0 0 0 0 0 0 0 0 0 0 0 0 0 0 0 0 0 1 0 0 0 0 0 2 7 13 14 11
0 0 0 0 0 0 0 0 0 0 0 0 0 0 0 0 0 0 0 0 0 0 0 0 0 0 0 0 0 0 0 0 0 0 0 0 0 0 3 12 26 34 34
0 0 0 0 0 0 0 0 0 0 0 0 0 0 0 0 0 0 0 0 0 0 0 0 0 0 0 0 0 0 0 0 0 0 1 6 15 20 19 19 26 41 51
0 0 0 0 0 0 0 0 0 0 0 0 0 0 0 0 0 0 0 0 0 0 0 0 0 0 0 0 0 0 0 0 0 0 1 13 34 51 52 45 43 53 63
0 0 0 0 0 0 0 0 0 0 0 0 0 0 0 0 0 0 0 0 0 0 0 0 0 0 0 0 0 0 0 0 0 0 1 10 33 61 78 81 79 80 83
0 0 0 0 0 0 0 0 0 0 0 0 0 0 0 0 0 0 0 0 0 0 0 0 0 0 0 0 0 0 6 16 22 24 25 26 35 57 82 95 97 97 97
0 0 0 0 0 0 0 0 0 0 0 0 0 0 0 0 0 0 0 0 0 0 0 0 0 0 1 2 2 3 13 31 41 47 58 64 62 64 76 88 88 80 75
0 0 0 0 0 0 0 0 0 0 0 0 0 0 0 0 0 0 0 0 0 0 0 0 0 0 2 5 3 4 11 18 22 30 49 67 71 62 54 58 56 40 31
0 0 0 0 0 0 0 0 0 0 0 0 0 0 0 0 0 0 0 0 0 0 0 0 0 0 1 2 2 2 2 1 0 4 14 30 44 42 27 20 17 9 3
0 0 0 0 0 0 0 0 0 0 0 0 0 0 0 0 0 0 0 0 0 0 0 0 0 0 0 0 0 0 0 0 0 0 1 5 14 19 11 2 0 0 0
0 0 0 0 0 0 0 0 0 0 0 0 0 0 0 0 0 0 0 0 0 0 0 0 0 0 0 0 0 0 0 0 0 0 0 0 2 5 4 1 0 0 0
0 0 0 0 0 0 0 0 0 0 0 0 0 0 0 0 0 0 0 0 0 0 0 0 0 0 0 0 0 0 0 0 0 0 0 0 0 0 0 0 0 0 0
0 0 0 0 0 0 0 0 0 0 0 0 0 0 0 0 0 0 0 0 0 0 0 0 0 0 0 0 0 0 0 0 0 0 0 0 0 0 0 0 0 0 0
0 0 0 0 0 0 0 0 0 0 0 0 0 0 0 0 0 0 0 0 0 0 0 0 0 0 0 0 0 0 0 0 0 0 0 0 0 0 0 0 0 0 0
0 0 0 0 0 0 0 0 0 0 0 0 0 0 0 0 0 0 0 0 0 0 0 0 0 0 0 0 0 0 0 0 0 0 0 0 0 0 0 0 0 0 0
0 0 0 0 0 0 0 0 0 0 0 0 0 0 0 0 0 0 0 0 0 0 0 0 0 0 0 0 0 0 0 0 0 0 0 0 0 0 0 0 0 0 0
0 0 0 0 0 0 0 0 0 0 0 0 0 0 0 0 0 0 0 0 0 0 0 0 0 0 0 0 0 0 0 0 0 0 0 0 0 0 0 0 0 0 0
0 0 0 0 0 0 0 0 0 0 0 0 0 0 0 0 0 0 0 0 0 0 0 0 0 0 0 0 0 0 0 0 0 0 0 0 0 0 0 0 0 0 0
0 0 0 0 0 0 0 0 0 0 0 0 0 0 0 0 0 0 0 0 0 0 0 0 0 0 0 0 0 0 0 0 0 0 0 0 0 0 0 0 0 0 0
0 0 0 0 0 0 0 0 0 0 0 0 0 0 0 0 0 0 0 0 0 0 0 0 0 0 0 0 0 0 0 0 0 0 0 0 0 0 0 0 0 0 0
0 0 0 0 0 0 0 0 0 0 0 0 0 0 0 0 0 0 0 0 0 0 0 0 0 0 0 0 0 0 0 0 0 0 0 0 0 0 0 0 0 0 0
0 0 0 0 0 0 0 0 0 0 0 0 0 0 0 0 0 0 0 0 0 0 0 0 0 0 0 0 0 0 0 0 0 0 0 0 0 0 0 0 0 0 0
Wind_Speed
4 5 5 6 6 6 7 7 8 9 10 11 12 13 14 15 15 12 10 13 18 24 26 27 27 27 28 29 30 28 28 28 28 28 28 28 28 27 28 28 28 27 28
4 5 6 6 6 6 7 7 9 9 9 10 12 13 14 14 14 14 12 12 15 21 26 28 28 28 29 29 30 29 28 28 29 29 30 30 30 30 30 30 30 30 30
5 5 5 6 6 7 8 8 9 9 9 10 11 12 12 14 14 14 13 11 11 16 24 27 28 29 30 30 31 31 30 30 31 31 31 31 31 32 32 33 33 33 33
5 5 5 5 7 6 6 7 8 8 9 10 10 11 11 12 15 14 13 12 10 10 13 21 25 27 28 30 32 32 31 31 31 32 32 32 32 33 34 34 34 34 34
6 4 4 6 6 5 6 7 7 8 9 9 9 11 11 11 13 12 13 13 12 11 10 10 15 21 25 28 30 32 33 32 32 32 33 33 33 34 35 36 37 37 37
9 7 6 8 8 7 8 9 10 10 10 10 10 11 11 12 12 11 11 11 10 11 11 11 10 11 18 25 28 29 31 31 32 32 33 34 35 36 36 38 38 38 39
10 9 7 8 8 8 9 10 10 11 11 11 11 12 12 12 12 9 8 11 12 12 13 13 10 9 9 14 20 24 27 29 31 31 32 34 35 36 37 38 39 39 39
10 9 9 7 7 7 8 10 11 10 10 11 12 14 12 13 12 12 13 12 13 12 13 12 13 13 13 10 10 14 19 24 28 30 30 30 32 34 35 38 39 39 39
10 9 8 8 8 7 8 9 10 10 10 10 11 11 13 13 13 14 14 12 13 12 12 14 16 16 15 12 12 12 14 20 25 27 29 29 29 32 34 35 37 38 38
9 9 9 8 8 7 8 8 9 9 10 9 10 10 12 14 15 16 11 14 14 14 15 13 15 17 17 14 13 12 14 17 23 26 27 28 30 31 33 34 35 36 37
7 8 8 7 8 7 8 9 9 9 8 9 9 10 11 11 14 16 15 13 13 13 14 14 14 13 15 14 12 14 18 19 24 26 28 28 29 29 30 32 32 32 34
5 8 9 8 8 8 8 9 9 9 9 9 9 10 10 11 11 13 15 15 15 14 14 13 14 12 11 10 10 11 15 20 22 24 25 26 28 29 27 31 30 28 28
6 8 9 8 8 8 8 9 8 8 9 9 10 10 10 11 11 12 15 14 16 14 15 14 12 11 10 10 11 14 18 19 22 23 24 29 29 27 26 27 28 32 32
5 7 7 7 8 9 9 9 8 8 8 9 11 12 10 11 11 12 13 14 16 15 15 18 13 13 12 12 18 18 17 23 26 23 26 28 27 25 24 24 24 28 30
5 6 8 9 9 9 10 10 8 10 10 10 11 12 11 11 11 12 12 12 15 15 16 19 16 17 14 15 17 18 19 24 28 28 26 27 27 22 23 25 24 25 26
6 8 8 9 9 9 10 10 9 9 11 11 10 13 13 12 12 13 12 12 12 13 15 17 16 18 19 17 20 21 21 25 25 29 29 29 22 24 28 28 25 23 24
7 8 9 10 10 10 11 10 11 11 12 13 13 15 15 16 13 13 13 12 12 13 14 17 15 19 25 23 21 21 20 19 17 26 31 29 26 27 29 29 25 24 23
7 8 9 10 11 11 11 12 12 12 14 15 15 16 16 15 16 14 13 14 14 15 15 17 19 18 22 23 23 23 20 17 18 22 31 31 29 29 29 30 25 21 18
8 9 9 10 11 12 12 12 13 15 15 15 15 16 16 17 17 14 15 15 13 13 14 16 19 18 18 19 20 21 21 18 18 21 26 27 28 27 27 27 26 22 20
9 10 10 11 11 12 12 12 14 15 16 15 15 15 16 16 17 17 16 16 15 15 16 15 16 16 18 18 17 18 18 16 16 16 19 20 24 26 25 25 25 24 19
9 10 11 11 12 11 11 14 15 16 17 17 16 15 15 18 22 20 17 16 17 16 15 15 16 16 16 17 18 17 18 16 16 15 13 13 13 14 16 20 20 22 21
10 11 12 12 13 10 15 18 17 16 16 16 15 15 16 17 19 23 26 27 25 23 19 17 16 17 19 19 18 17 17 17 16 13 13 14 12 13 13 14 21 24 25
11 12 13 13 14 14 16 19 20 15 14 14 15 15 14 14 18 18 22 26 24 24 23 20 19 21 21 20 21 20 17 18 16 13 13 14 12 12 12 14 24 28 28
12 13 13 14 14 13 17 19 20 15 14 14 15 16 17 17 18 22 20 18 17 18 20 19 18 19 20 20 19 19 20 20 18 12 11 14 13 12 12 12 23 28 26
12 13 13 14 14 14 16 18 18 14 14 15 15 16 18 18 25 29 23 20 20 18 20 26 29 28 32 31 24 16 15 15 14 11 9 12 13 13 11 11 12 17 20
13 13 13 13 13 13 15 17 18 13 14 14 14 16 21 23 28 31 25 20 18 19 19 19 20 21 21 21 24 17 14 14 14 14 9 8 10 11 10 8 6 9 13
Wind_Direction
294 302 302 308 309 305 301 299 296 293 289 285 280 275 272 269 267 261 258 240 228 238 248 250 250 251 251 251 250 249 248 248 245 240 237 236 235 236 237 239 241 241 240
302 309 303 299 304 304 304 303 304 302 295 291 288 283 280 278 274 271 267 259 235 233 242 248 248 247 248 249 250 249 246 246 246 245 241 237 236 235 235 236 236 237 238
295 296 300 311 320 324 320 316 312 307 300 297 294 294 291 287 282 278 271 264 253 233 233 242 249 248 245 245 246 246 244 242 241 241 241 239 237 236 235 234 235 235 236
334 320 323 333 337 332 329 326 324 318 313 310 308 304 298 292 286 281 276 272 266 259 238 234 241 250 254 251 249 249 247 244 242 241 242 242 239 236 236 235 235 235 236
27 16 14 6 355 352 349 342 329 322 313 309 305 300 298 293 289 284 279 277 274 269 266 256 237 239 247 255 256 255 252 249 246 244 243 243 242 239 236 236 235 235 234
44 38 31 17 4 359 355 346 333 328 320 320 316 305 299 294 290 286 288 288 285 280 274 271 266 252 239 244 253 258 260 258 253 249 247 246 245 243 240 238 237 236 235
38 30 18 11 2 355 351 343 337 331 327 330 321 316 305 296 297 303 323 308 294 289 281 277 283 283 271 250 246 252 258 261 262 256 250 248 249 248 248 246 242 239 237
33 26 15 5 358 348 347 345 344 336 332 334 329 328 319 315 319 335 310 300 299 288 286 288 281 287 293 290 283 266 259 262 265 268 263 254 250 250 249 248 247 245 242
31 22 14 2 359 354 351 348 347 339 333 332 338 327 329 322 321 312 307 302 315 311 307 310 307 300 292 287 281 270 256 254 262 268 272 273 266 258 253 251 248 246 245
27 17 11 5 2 358 356 350 349 342 337 335 337 332 323 319 319 316 318 318 309 315 309 305 304 303 296 289 289 283 262 259 266 271 275 273 272 269 263 256 251 250 248
25 17 8 7 7 4 358 350 346 344 342 338 334 329 323 321 322 314 310 312 307 305 305 299 294 293 296 296 295 297 306 304 295 291 287 281 276 275 275 272 263 258 254
19 19 7 10 8 1 353 345 342 339 339 336 329 323 321 319 314 307 304 305 303 303 302 302 298 289 292 304 318 338 342 332 322 314 305 298 293 289 290 293 291 289 286
12 9 2 0 358 352 347 341 335 331 332 329 322 316 315 310 309 304 303 304 302 305 305 300 302 308 317 323 324 344 330 322 315 312 320 314 308 304 300 300 301 299 297
359 353 350 350 350 348 344 337 325 326 326 322 318 311 308 304 303 302 303 305 303 303 304 303 314 317 320 323 327 322 318 314 307 310 314 309 308 306 301 297 293 288 289
346 344 348 348 345 341 334 328 323 324 321 316 311 305 302 300 302 302 305 303 301 303 304 306 310 311 310 314 310 319 311 304 305 304 302 300 294 299 305 300 295 287 283
347 341 340 337 332 327 325 323 317 318 313 310 304 301 298 300 306 303 300 301 300 297 293 295 305 303 312 309 310 309 307 304 298 301 298 287 288 300 294 294 295 292 287
341 333 331 325 320 320 322 319 318 314 310 305 304 301 301 302 301 302 301 295 294 295 297 294 297 306 305 306 307 307 306 303 299 296 291 292 298 287 285 285 289 289 288
334 325 317 313 315 320 323 320 315 312 308 306 306 304 303 303 301 298 295 297 296 296 295 297 301 302 301 306 308 308 307 303 297 292 291 290 287 284 284 285 287 290 293
320 313 313 317 320 321 318 313 315 311 309 307 306 307 306 305 300 301 303 300 299 301 300 296 296 300 301 304 306 304 301 299 296 296 294 292 289 289 288 285 286 288 284
313 316 319 319 316 313 311 317 317 311 309 307 309 307 306 304 305 307 302 301 306 302 298 297 298 301 303 304 303 303 304 304 301 298 295 291 295 291 291 295 296 291 280
311 316 315 313 312 310 313 320 314 311 310 310 309 309 307 307 303 301 303 304 302 298 299 298 299 302 304 307 308 308 306 307 300 299 292 298 306 305 302 297 288 278 268
313 314 313 313 311 309 314 315 313 310 309 310 311 311 309 307 308 310 306 302 301 305 306 302 304 302 305 306 305 307 304 302 304 301 306 305 299 294 291 289 287 286 281
316 315 315 314 310 309 314 315 316 311 307 311 311 310 310 311 315 306 304 305 308 298 301 305 300 299 300 299 301 300 298 295 291 299 301 289 291 281 284 281 284 284 279
317 316 314 312 307 308 315 319 320 310 311 311 311 311 311 312 309 308 311 308 302 310 309 303 297 295 292 296 298 297 294 289 287 286 282 288 298 291 292 292 290 285 279
314 312 312 310 308 311 319 321 318 314 314 315 315 313 311 308 309 319 321 311 311 312 309 304 302 306 306 301 298 297 294 293 294 290 294 289 294 294 292 288 284 298 303
309 311 308 311 312 313 319 319 318 318 316 315 311 310 308 311 317 320 318 312 312 314 311 308 310 309 302 299 298 298 300 297 295 295 299 291 295 295 291 285 308 304 298